Date,TemperatureHighF,TemperatureAvgF,TemperatureLowF,DewpointHighF,DewpointAvgF,DewpointLowF,HumidityHigh,HumidityAvg,HumidityLow,PressureMaxIn,PressureMinIn,WindSpeedMaxMPH,WindSpeedAvgMPH,GustSpeedMaxMPH,PrecipitationSumIn
2013-1-1,39.0,35.6,28.0,37.0,8.3,-14.0,97,50,10,30.14,29.95,7,3,16,0.01
2013-1-2,34.0,26.0,19.0,24.0,18.0,15.0,88,73,48,30.22,30.13,6,1,14,0.00
2013-1-3,41.0,27.4,18.0,27.0,20.5,16.0,92,77,51,30.36,30.18,7,1,13,0.00
2013-1-4,43.0,30.2,21.0,29.0,23.5,19.0,98,78,49,30.40,30.32,12,2,18,0.00
2013-1-5,43.0,34.2,23.0,31.0,27.0,21.0,97,76,55,30.33,30.15,11,3,17,0.00
2013-1-6,44.0,34.4,23.0,36.0,27.7,-15.0,99,79,10,30.33,30.09,10,4,18,0.00
2013-1-7,43.0,29.3,19.0,28.0,22.3,17.0,96,77,47,30.41,3.04,10,1,12,0.00
2013-1-8,55.0,39.2,23.0,36.0,30.0,20.0,92,72,43,30.23,30.11,11,2,14,0.00
2013-1-9,54.0,49.1,44.0,49.0,44.4,-7.0,99,84,10,30.33,30.14,13,3,16,0.06
2013-1-10,66.0,57.4,47.0,64.0,26.2,-7.0,98,48,10,30.32,29.78,18,7,22,0.57
2013-1-11,65.0,59.5,56.0,64.0,50.4,2.0,96,76,10,29.92,29.78,14,7,29,0.61
2013-1-12,71.0,67.1,59.0,70.0,48.4,4.0,99,68,10,29.88,29.62,19,8,32,0.01
2013-1-13,70.0,41.6,28.0,65.0,11.3,-16.0,97,45,10,30.22,29.62,19,5,32,2.70
2013-1-14,30.0,26.6,24.0,24.0,21.1,19.0,89,79,68,30.37,30.21,14,5,19,2.70
2013-1-15,30.0,27.4,23.0,29.0,23.7,20.0,97,86,74,30.25,29.98,13,5,19,0.00
2013-1-16,32.0,30.9,30.0,29.0,27.8,27.0,96,88,82,30.09,29.98,6,1,12,0.03
2013-1-17,47.0,34.7,26.0,34.0,28.5,24.0,93,79,59,30.40,30.05,11,2,22,0.02
2013-1-18,47.0,34.6,22.0,29.0,24.6,20.0,97,70,41,30.50,30.23,13,4,19,0.00
2013-1-19,54.0,44.9,34.0,32.0,28.3,24.0,70,53,38,30.24,30.01,24,10,32,0.00
2013-1-20,47.0,38.5,27.0,33.0,24.1,14.0,92,59,28,30.21,30.04,12,3,19,0.00
2013-1-21,34.0,25.5,21.0,18.0,13.7,9.0,78,61,39,30.28,30.14,10,2,16,0.00
2013-1-22,26.0,21.3,16.0,9.0,0.5,-5.0,54,40,26,30.41,30.26,7,2,12,0.00
2013-1-23,47.0,30.3,18.0,30.0,18.3,6.0,91,62,43,30.32,30.07,10,2,16,0.00
2013-1-24,31.0,27.5,21.0,28.0,12.4,3.0,93,54,34,30.47,30.16,17,8,25,0.00
2013-1-25,34.0,29.3,26.0,30.0,23.0,4.0,98,79,35,30.20,30.03,7,2,13,0.10
2013-1-26,46.0,34.3,25.0,33.0,25.5,19.0,99,73,40,30.29,30.17,9,2,12,0.01
2013-1-27,50.0,38.9,29.0,44.0,35.1,23.0,99,86,76,30.25,30.04,12,4,17,0.07
2013-1-28,62.0,55.9,49.0,58.0,51.1,40.0,99,85,63,30.06,29.96,17,9,25,0.30
2013-1-29,70.0,63.1,58.0,63.0,58.8,54.0,96,86,74,29.96,29.35,24,12,43,0.00
2013-1-30,65.0,47.4,32.0,60.0,26.1,-1.0,96,56,10,29.84,29.36,18,7,42,1.68
2013-1-31,42.0,34.4,22.0,33.0,24.4,14.0,99,68,47,30.24,29.84,13,5,27,0.03
2013-2-1,25.0,19.6,12.0,16.0,8.7,1.0,74,62,53,30.48,30.24,8,2,16,0.04
2013-2-2,39.0,32.9,23.0,33.0,24.3,12.0,88,71,52,30.26,30.02,13,4,22,0.00
2013-2-3,44.0,36.0,27.0,33.0,26.4,19.0,88,69,47,30.10,29.93,8,3,19,0.00
2013-2-4,49.0,38.8,27.0,41.0,31.0,21.0,91,75,43,30.05,29.81,14,5,24,0.04
2013-2-5,56.0,44.7,34.0,43.0,38.9,32.0,99,82,44,30.01,29.83,10,2,16,0.00
2013-2-6,52.0,42.0,31.0,36.0,31.9,28.0,99,70,40,30.17,29.99,9,3,12,0.01
2013-2-7,65.0,51.7,40.0,53.0,40.7,30.0,98,67,53,30.01,29.78,10,2,19,0.08
2013-2-8,51.0,39.8,33.0,48.0,33.1,-4.0,99,79,10,30.28,29.81,17,5,25,0.42
2013-2-9,48.0,38.5,30.0,32.0,27.9,25.0,84,67,45,30.31,30.00,12,5,17,0.00
2013-2-10,58.0,51.4,44.0,57.0,43.1,-4.0,98,76,10,30.00,29.64,19,9,35,0.47
2013-2-11,58.0,44.9,33.0,57.0,33.3,26.0,97,65,38,30.08,29.76,13,4,21,0.00
2013-2-12,47.0,39.3,28.0,34.0,29.7,26.0,97,70,47,30.08,29.76,10,3,14,0.01
2013-2-13,43.0,39.0,36.0,37.0,35.2,32.0,99,87,70,29.89,29.71,11,4,20,0.13
2013-2-14,56.0,42.3,36.0,39.0,36.6,35.0,98,82,51,29.91,29.86,14,6,20,0.13
2013-2-21,40.0,34.5,32.0,38.0,13.5,-17.0,99,61,10,29.93,29.75,18,9,30,0.93
2013-2-22,46.0,40.9,34.0,42.0,30.6,-12.0,99,76,10,29.98,29.75,13,4,18,0.01
2013-2-23,46.0,34.4,27.0,30.0,26.3,24.0,91,74,46,29.98,29.88,9,2,11,0.01
2013-2-24,49.0,36.5,24.0,29.0,24.5,21.0,93,65,36,30.07,29.92,11,4,14,0.00
2013-2-25,56.0,45.7,32.0,45.0,28.3,23.0,87,52,34,29.94,29.40,18,10,30,0.01
2013-2-26,50.0,44.7,38.0,50.0,32.8,-6.0,99,75,10,29.60,29.25,24,9,35,0.58
2013-2-27,38.0,37.2,35.0,35.0,31.9,29.0,90,81,71,29.83,29.60,18,6,25,0.00
2013-2-28,37.0,34.7,32.0,32.0,29.1,25.0,93,80,71,30.01,29.82,9,3,17,0.01
2013-3-1,37.0,34.5,33.0,36.0,33.1,31.0,99,95,84,30.03,29.96,11,2,14,0.12
2013-3-2,33.0,31.3,28.0,32.0,27.0,19.0,97,84,71,30.13,30.00,11,3,18,0.05
2013-3-3,41.0,31.7,19.0,27.0,19.0,13.0,88,61,38,30.13,30.01,7,1,13,0.00
2013-3-4,56.0,44.5,34.0,41.0,27.5,20.0,81,52,36,30.03,29.71,16,5,21,0.07
2013-3-5,52.0,41.8,33.0,44.0,20.4,-7.0,99,58,10,30.00,29.66,16,4,29,0.51
2013-3-6,40.0,34.4,30.0,26.0,24.6,22.0,76,67,55,30.26,29.99,19,4,29,0.00
2013-3-7,42.0,33.2,25.0,29.0,25.4,21.0,89,74,54,30.34,30.24,7,3,12,0.00
2013-3-8,53.0,39.6,25.0,31.0,26.9,22.0,93,64,33,30.36,30.16,12,4,17,0.00
2013-3-9,64.0,51.2,40.0,36.0,30.7,27.0,65,47,27,30.16,29.86,14,4,20,0.00
2013-3-10,65.0,57.1,50.0,54.0,32.2,-4.0,96,45,10,29.87,29.64,28,10,34,1.01
2013-3-11,54.0,42.9,36.0,46.0,31.2,-2.0,92,71,10,29.93,29.66,14,6,26,1.01
2013-3-12,51.0,39.4,27.0,33.0,27.7,20.0,99,66,34,30.08,29.93,12,2,17,0.00
2013-3-13,43.0,36.0,27.0,28.0,20.8,16.0,75,55,36,30.35,30.08,13,4,25,0.00
2013-3-14,44.0,33.9,22.0,29.0,22.4,18.0,89,65,41,30.35,30.08,10,3,14,0.00
2013-3-15,74.0,56.3,38.0,50.0,39.0,23.0,70,53,38,30.08,29.71,20,6,31,0.00
2013-3-16,71.0,60.4,45.0,53.0,46.5,38.0,77,61,47,29.87,29.67,17,7,31,0.00
2013-3-17,47.0,43.1,40.0,40.0,12.8,-11.0,97,45,10,29.93,29.65,15,7,20,0.54
2013-3-18,55.0,47.7,37.0,51.0,18.2,-10.0,97,47,10,29.91,29.57,16,3,24,0.88
2013-3-19,52.0,43.0,33.0,38.0,22.2,-13.0,99,52,10,30.12,29.91,7,2,17,0.01
2013-3-20,45.0,35.1,27.0,31.0,23.5,14.0,83,63,44,30.12,30.00,10,3,21,0.00
2013-3-21,40.0,30.1,18.0,19.0,14.4,10.0,87,55,31,30.05,29.90,7,2,12,0.00
2013-3-22,43.0,37.0,32.0,27.0,21.5,16.0,62,53,45,29.96,29.88,10,5,13,0.00
2013-3-23,53.0,44.9,39.0,45.0,33.1,25.0,98,64,49,29.92,29.65,12,6,20,0.14
2013-3-24,49.0,41.9,35.0,47.0,18.0,-11.0,99,56,10,29.69,29.37,20,7,28,0.43
2013-3-25,37.0,34.2,32.0,32.0,28.5,25.0,97,80,69,30.09,29.68,17,7,30,0.00
2013-3-26,41.0,34.8,30.0,31.0,28.6,25.0,97,79,55,30.29,30.09,7,2,13,0.03
2013-3-27,49.0,36.5,23.0,32.0,25.5,21.0,96,68,38,30.34,30.24,6,1,14,0.00
2013-3-28,58.0,46.7,36.0,36.0,32.0,29.0,87,59,35,30.29,30.17,7,2,10,0.00
2013-3-29,55.0,48.3,44.0,47.0,42.3,35.0,95,80,59,30.20,30.09,11,3,19,0.33
2013-3-30,54.0,49.2,41.0,50.0,17.8,-99.9,99,46,10,30.12,29.83,10,3,14,0.29
2013-3-31,63.0,55.9,48.0,55.0,25.6,-2.0,91,45,10,29.86,29.78,7,2,11,0.03
2013-4-1,58.0,48.4,38.0,46.0,35.4,24.0,97,63,39,30.10,29.81,11,3,19,0.00
2013-4-2,45.0,40.6,36.0,27.0,21.5,15.0,67,48,30,30.23,30.10,8,2,16,0.00
2013-4-3,52.0,42.9,33.0,23.0,20.3,15.0,63,42,25,30.25,30.11,24,7,27,0.00
2013-4-4,47.0,43.0,39.0,44.0,33.2,19.0,95,71,37,30.11,29.93,10,3,16,0.14
2013-4-5,68.0,52.4,36.0,44.0,33.1,-15.0,99,56,10,30.05,29.95,6,1,16,0.01
2013-4-6,71.0,57.4,41.0,44.0,38.5,35.0,83,54,27,30.01,29.81,21,7,28,0.01
2013-4-7,71.0,62.6,58.0,56.0,49.0,41.0,77,61,48,29.92,29.83,17,8,25,0.00
2013-4-8,74.0,66.2,60.0,57.0,53.0,48.0,77,63,50,29.86,29.78,25,9,32,0.00
2013-4-9,76.0,68.3,60.0,64.0,59.7,52.0,85,74,63,29.93,29.80,19,7,25,0.00
2013-4-10,81.0,73.7,68.0,64.0,62.2,59.0,86,68,52,29.86,29.60,22,10,28,0.00
2013-4-11,71.0,60.7,51.0,63.0,15.1,-2.0,98,26,10,29.65,29.52,10,3,17,2.78
2013-4-12,60.0,50.4,41.0,49.0,40.4,34.0,94,70,47,29.93,29.65,18,4,28,0.00
2013-4-13,65.0,49.8,34.0,42.0,36.0,30.0,94,62,32,30.02,29.88,7,2,13,0.00
2013-4-14,72.0,59.5,49.0,51.0,44.8,39.0,78,60,38,29.88,29.69,19,6,33,0.00
2013-4-15,78.0,66.7,55.0,62.0,55.9,49.0,91,70,46,29.85,29.73,16,6,22,0.00
2013-4-16,79.0,71.3,65.0,71.0,65.8,58.0,99,83,69,29.96,29.82,12,5,21,0.00
2013-4-17,83.0,74.6,67.0,71.0,67.0,64.0,99,78,54,29.99,29.76,16,5,24,0.02
2013-4-18,79.0,73.0,50.0,67.0,61.6,-5.0,98,70,10,29.76,29.52,25,11,35,0.61
2013-4-19,49.0,43.4,39.0,43.0,30.2,-8.0,97,65,10,30.02,29.59,14,4,22,0.84
2013-4-20,60.0,47.5,34.0,41.0,33.6,28.0,98,63,33,30.23,30.02,7,2,16,0.00
2013-4-21,62.0,50.5,37.0,37.0,32.3,24.0,80,53,26,30.32,30.16,13,4,19,0.00
2013-4-22,71.0,57.6,42.0,49.0,41.4,33.0,82,56,36,30.17,29.96,13,3,18,0.00
2013-4-23,72.0,62.5,54.0,60.0,52.8,44.0,83,71,58,30.00,29.78,16,6,26,0.00
2013-4-24,65.0,47.5,37.0,59.0,34.6,-11.0,99,70,10,30.22,29.75,12,4,20,0.58
2013-4-25,64.0,49.0,33.0,44.0,34.9,-17.0,99,65,10,30.30,30.20,8,2,13,0.01
2013-4-26,52.0,49.0,43.0,51.0,29.8,-4.0,99,63,10,30.36,30.18,8,2,17,0.48
2013-4-27,65.0,58.6,52.0,63.0,11.3,-3.0,98,24,10,30.24,29.79,10,4,17,2.19
2013-4-28,66.0,62.3,53.0,60.0,34.9,3.0,97,53,10,29.86,29.78,7,2,16,0.00
2013-4-29,74.0,62.3,51.0,59.0,43.7,-4.0,99,61,10,29.92,29.79,7,1,12,0.00
2013-4-30,79.0,66.9,54.0,61.0,55.1,50.0,99,70,38,29.90,29.81,7,2,12,0.01
2013-5-1,79.0,67.7,55.0,65.0,58.0,52.0,95,72,52,29.99,29.89,7,2,13,0.00
2013-5-2,74.0,66.3,58.0,63.0,58.2,54.0,98,76,58,30.05,29.93,8,1,12,0.06
2013-5-3,72.0,61.6,44.0,65.0,43.5,-9.0,99,63,10,29.93,29.67,14,5,27,0.88
2013-5-4,57.0,47.6,43.0,44.0,22.3,-10.0,98,50,10,29.88,29.78,7,2,13,0.61
2013-5-5,62.0,53.0,44.0,53.0,48.4,-5.0,99,86,10,29.86,29.74,8,2,13,0.00
2013-5-6,65.0,58.6,55.0,61.0,56.2,1.0,99,93,10,29.83,29.71,8,2,14,0.11
2013-5-7,72.0,63.2,56.0,61.0,36.2,0.0,99,51,10,29.91,29.82,14,1,14,0.01
2013-5-8,79.0,67.9,57.0,64.0,43.4,2.0,99,51,10,29.95,29.86,10,1,11,0.01
2013-5-9,78.0,70.0,60.0,63.0,60.1,58.0,94,72,54,29.96,29.83,14,4,26,0.00
2013-5-10,76.0,67.6,64.0,68.0,45.0,-99.9,97,59,10,29.86,29.75,12,2,29,0.53
2013-5-11,71.0,61.7,55.0,60.0,52.6,-99.9,95,75,47,30.02,29.85,7,2,18,0.53
2013-5-12,63.0,52.2,40.0,43.0,35.5,26.0,94,58,29,30.12,30.01,10,2,17,0.00
2013-5-13,70.0,54.7,38.0,48.0,39.0,29.0,99,62,26,30.18,30.04,8,1,13,0.00
2013-5-14,83.0,68.5,51.0,61.0,53.5,43.0,81,60,43,30.05,29.84,12,4,24,0.00
2013-5-15,82.0,72.3,64.0,61.0,55.4,48.0,73,56,33,29.96,29.84,12,4,25,0.00
2013-5-16,79.0,66.5,65.0,67.0,40.7,-99.9,83,69,57,29.90,29.81,7,2,13,0.00
2013-5-17,72.0,67.2,63.0,70.0,48.7,-99.9,99,75,10,29.91,29.82,12,2,13,0.18
2013-5-18,83.0,75.1,70.0,75.0,47.9,11.0,99,51,10,29.90,29.82,5,1,8,0.19
2013-5-19,87.0,79.4,71.0,77.0,63.6,14.0,99,67,10,29.84,29.75,19,4,20,0.00
2013-5-20,85.0,77.9,71.0,74.0,70.5,69.0,98,79,60,29.86,29.72,19,5,21,0.00
2013-5-21,77.0,71.4,67.0,72.0,50.7,9.0,99,64,10,29.84,29.69,14,3,38,1.19
2013-5-22,77.0,71.3,66.0,70.0,44.0,9.0,91,51,10,29.76,29.65,10,4,21,0.18
2013-5-23,73.0,67.1,58.0,62.0,58.4,51.0,99,75,56,30.04,29.76,13,3,20,0.18
2013-5-24,68.0,58.4,49.0,52.0,47.1,43.0,93,69,41,30.25,30.04,11,3,16,0.00
2013-5-25,75.0,62.2,48.0,55.0,48.4,-2.0,99,66,10,30.25,30.06,8,1,14,0.00
2013-5-26,82.0,69.4,56.0,61.0,57.6,53.0,97,69,41,30.11,29.99,7,1,13,0.00
2013-5-27,82.0,71.9,59.0,65.0,59.3,55.0,91,66,48,30.00,29.83,18,5,32,0.00
2013-5-28,84.0,75.8,69.0,69.0,62.8,55.0,84,65,45,29.94,29.84,17,6,28,0.00
2013-5-29,85.0,74.7,63.0,68.0,62.6,56.0,84,67,48,29.98,29.85,13,4,24,0.00
2013-5-30,83.0,76.2,69.0,72.0,62.6,10.0,86,69,10,29.94,29.83,16,4,41,0.50
2013-5-31,82.0,76.1,71.0,77.0,58.4,12.0,99,69,10,29.90,29.76,16,4,26,0.45
2013-6-1,77.0,72.2,66.0,72.0,43.2,8.0,99,53,10,29.90,29.69,12,4,24,2.10
2013-6-2,78.0,72.3,63.0,68.0,43.2,12.0,92,48,10,29.87,29.80,8,2,14,0.00
2013-6-3,75.0,67.0,61.0,64.0,53.3,4.0,98,69,10,29.95,29.85,11,2,13,0.00
2013-6-4,78.0,68.0,56.0,64.0,59.1,54.0,99,75,49,29.96,29.87,9,2,12,0.00
2013-6-5,86.0,75.1,66.0,73.0,67.3,64.0,99,79,50,29.88,29.70,7,1,10,0.00
2013-6-6,81.0,74.7,69.0,76.0,49.6,10.0,99,55,10,29.73,29.65,7,1,17,1.00
2013-6-7,79.0,71.3,64.0,68.0,64.2,59.0,96,80,55,29.78,29.67,8,2,16,0.00
2013-6-8,80.0,71.8,63.0,70.0,52.2,6.0,99,59,10,29.89,29.77,6,1,11,0.00
2013-6-9,81.0,70.2,64.0,76.0,56.1,12.0,99,75,10,29.91,29.71,14,1,24,1.35
2013-6-10,84.0,75.9,68.0,78.0,51.7,11.0,99,56,10,29.82,29.72,12,3,20,0.05
2013-6-11,91.0,80.4,67.0,78.0,57.1,9.0,99,55,10,29.90,29.81,6,1,14,0.01
2013-6-12,90.0,83.1,75.0,78.0,73.9,71.0,91,74,58,29.91,29.74,14,4,21,0.01
2013-6-13,84.0,77.7,67.0,74.0,69.6,63.0,94,77,61,29.85,29.71,11,4,24,0.00
2013-6-14,80.0,70.9,61.0,65.0,60.4,58.0,99,72,49,29.96,29.85,9,2,16,0.00
2013-6-15,85.0,77.8,63.0,70.0,64.9,61.0,99,67,47,30.00,29.87,8,2,14,0.00
2013-6-16,87.0,77.3,70.0,74.0,68.9,65.0,90,76,58,29.94,29.83,6,2,13,0.00
2013-6-17,88.0,78.4,73.0,77.0,73.3,70.0,99,86,60,29.85,29.78,11,1,11,0.33
2013-6-18,82.0,78.7,73.0,72.0,69.6,67.0,97,74,60,29.85,29.79,9,3,17,0.20
2013-6-19,86.0,76.8,68.0,73.0,68.3,64.0,99,76,51,29.95,29.84,7,2,11,0.04
2013-6-20,87.0,81.3,70.0,74.0,70.0,66.0,97,70,51,30.03,29.94,4,1,8,0.04
2013-6-22,87.0,83.8,74.0,73.0,70.0,68.0,89,64,55,30.06,29.94,11,3,14,0.00
2013-6-23,87.0,78.9,70.0,73.0,69.3,66.0,99,74,54,30.01,29.90,9,2,14,0.00
2013-6-24,87.0,78.7,74.0,79.0,73.2,69.0,99,83,66,30.03,29.92,10,3,17,0.06
2013-6-25,88.0,82.1,77.0,78.0,75.1,73.0,98,81,64,29.95,29.79,13,4,17,0.00
2013-6-26,88.0,81.4,75.0,76.0,72.3,68.0,95,75,60,29.84,29.66,16,6,26,0.00
2013-6-27,93.0,86.6,75.0,82.0,74.0,68.0,98,68,46,29.75,29.68,7,2,16,1.10
2013-6-28,88.0,79.8,70.0,76.0,70.8,64.0,99,77,46,29.72,29.56,9,1,16,1.10
2013-6-29,84.0,74.7,65.0,67.0,62.9,60.0,99,69,48,29.62,29.52,15,2,19,0.20
2013-6-30,79.0,73.8,68.0,71.0,67.1,65.0,97,80,65,29.71,29.65,7,2,14,0.06
2013-7-1,76.0,72.1,70.0,72.0,68.6,66.0,99,89,76,29.79,29.72,6,1,13,0.01
2013-7-2,77.0,72.6,64.0,71.0,66.4,63.0,99,82,66,29.93,29.84,11,2,14,0.00
2013-7-3,81.0,73.8,64.0,69.0,66.0,63.0,98,78,59,30.01,29.92,5,1,8,0.00
2013-7-4,80.0,75.3,68.0,76.0,70.2,67.0,99,85,72,29.97,29.90,14,4,20,0.00
2013-7-5,81.0,75.4,71.0,74.0,70.5,67.0,99,86,68,29.99,29.91,7,1,21,0.00
2013-7-6,83.0,80.0,71.0,75.0,71.7,67.0,99,76,65,29.98,29.87,8,2,12,0.02
2013-7-7,87.0,81.9,73.0,78.0,72.7,70.0,96,75,58,29.99,29.92,7,1,11,0.01
2013-7-8,90.0,82.2,73.0,79.0,72.1,-99.9,96,77,58,30.04,29.95,6,1,10,0.01
2013-7-9,91.0,82.7,76.0,79.0,75.6,73.0,98,81,59,30.00,29.88,8,2,16,0.00
2013-7-10,92.0,81.8,76.0,79.0,72.6,-99.9,95,77,56,29.91,29.76,10,2,13,0.00
2013-7-11,85.0,78.9,66.0,79.0,69.1,59.0,99,73,56,29.89,29.81,8,3,19,0.00
2013-7-12,80.0,71.2,63.0,67.0,61.4,57.0,97,74,47,29.96,29.88,12,3,18,0.00
2013-7-13,81.0,73.8,63.0,68.0,63.2,59.0,99,72,50,29.95,29.88,11,2,17,0.00
2013-7-14,84.0,76.6,68.0,74.0,71.5,66.0,99,85,66,30.01,29.91,11,2,17,0.00
2013-7-15,85.0,80.5,74.0,77.0,74.2,71.0,99,82,67,30.12,30.01,11,2,17,0.00
2013-7-16,89.0,82.2,74.0,76.0,73.3,70.0,99,76,56,30.20,30.11,9,1,12,0.00
2013-7-17,91.0,86.2,77.0,79.0,74.4,71.0,98,70,53,30.20,30.06,7,2,13,0.00
2013-7-18,90.0,81.4,75.0,81.0,75.7,71.0,99,84,62,30.09,29.94,8,1,12,0.03
2013-7-19,90.0,84.8,76.0,79.0,75.1,72.0,93,73,59,29.96,29.82,6,2,16,0.01
2013-7-20,89.0,81.0,72.0,78.0,72.8,-99.9,99,78,63,29.86,29.72,13,3,17,0.11
2013-7-21,89.0,85.6,72.0,79.0,75.9,71.0,98,73,59,29.85,29.75,24,4,24,0.00
2013-7-22,86.0,82.6,79.0,80.0,77.3,76.0,99,85,75,29.78,29.72,10,3,16,0.97
2013-7-23,88.0,81.5,70.0,79.0,73.4,67.0,98,78,54,29.82,29.67,17,3,31,0.01
2013-7-24,82.0,75.5,66.0,75.0,68.7,62.0,98,81,62,29.88,29.71,11,2,18,0.01
2013-7-25,79.0,71.5,64.0,68.0,63.0,59.0,99,76,52,29.97,29.87,9,2,16,0.00
2013-7-26,81.0,73.8,63.0,69.0,64.7,60.0,99,75,49,29.97,29.84,5,1,11,0.00
2013-7-27,83.0,75.1,65.0,74.0,68.7,59.0,99,82,61,29.89,29.77,7,1,12,0.00
2013-7-28,77.0,66.8,56.0,62.0,56.9,52.0,98,73,43,29.98,29.86,5,1,8,0.00
2013-7-29,76.0,70.4,62.0,69.0,62.9,58.0,99,79,53,30.07,29.97,7,1,10,0.00
2013-7-30,73.0,69.8,68.0,72.0,67.9,66.0,98,94,88,30.06,30.03,3,0,8,0.07
2013-7-31,87.0,81.5,74.0,81.0,75.8,73.0,99,84,72,29.89,29.82,7,2,11,0.01
2013-8-1,84.0,78.3,69.0,74.0,68.9,67.0,99,74,58,29.95,29.87,9,2,13,0.00
2013-8-2,85.0,78.3,69.0,72.0,68.1,64.0,99,72,52,29.93,29.85,7,2,10,0.01
2013-8-3,86.0,78.1,71.0,79.0,73.8,68.0,99,87,75,29.94,29.83,5,1,13,0.78
2013-8-4,80.0,76.0,69.0,72.0,65.1,63.0,85,70,60,30.02,29.97,8,3,14,0.00
2013-9-3,82.0,75.4,68.0,71.0,66.5,62.0,99,76,53,29.94,29.80,5,1,12,0.00
2013-9-4,80.0,73.6,64.0,71.0,64.0,61.0,99,74,55,30.04,29.94,8,2,12,0.01
2013-9-5,81.0,74.7,64.0,70.0,65.9,63.0,99,76,56,30.09,30.02,6,1,11,0.01
2013-9-6,84.0,78.0,69.0,71.0,67.6,65.0,98,72,55,30.06,29.95,7,1,12,0.00
2013-9-7,88.0,78.5,68.0,74.0,65.9,-99.9,99,72,57,29.97,29.86,7,2,12,0.00
2013-9-8,90.0,80.5,71.0,76.0,72.3,69.0,99,78,51,29.88,29.80,2,1,8,0.00
2013-9-9,91.0,81.5,75.0,77.0,74.0,69.0,97,80,58,29.91,29.83,7,2,13,0.00
2013-9-10,88.0,80.3,75.0,78.0,74.3,70.0,97,83,57,30.03,29.91,6,1,10,0.00
2013-9-11,91.0,81.2,73.0,78.0,74.8,70.0,99,82,60,30.06,29.96,5,2,13,0.80
2013-9-12,88.0,81.4,71.0,80.0,74.7,69.0,96,81,67,29.94,29.81,7,2,12,0.01
2013-9-13,73.0,66.3,57.0,69.0,59.3,53.0,97,80,56,29.96,29.87,12,2,18,0.00
2013-9-14,70.0,59.5,53.0,55.0,48.8,-99.9,97,73,50,30.04,29.95,14,3,19,0.00
2013-9-15,79.0,67.2,55.0,61.0,57.3,54.0,99,74,44,29.98,29.95,5,1,13,0.01
2013-9-16,74.0,68.9,61.0,69.0,64.7,59.0,99,87,73,30.08,29.97,5,1,11,0.00
2013-9-17,79.0,73.2,67.0,69.0,66.2,63.0,98,80,61,30.09,29.98,6,2,10,0.00
2013-9-18,74.0,71.6,68.0,72.0,70.9,67.0,99,98,93,29.99,29.94,1,0,10,0.00
2013-9-19,84.0,77.3,72.0,74.0,71.8,69.0,99,84,67,29.99,29.86,13,3,21,0.00
2013-10-7,65.0,55.1,49.0,54.0,49.8,48.0,99,84,54,30.04,29.83,7,2,16,0.00
2013-10-8,67.0,58.0,51.0,54.0,49.1,42.0,99,75,42,30.10,30.01,13,3,21,0.00
2013-10-9,77.0,66.3,52.0,65.0,60.0,50.0,99,82,61,30.06,29.99,7,1,10,0.00
2013-10-10,78.0,71.8,63.0,69.0,64.5,62.0,99,79,59,30.04,29.93,3,0,7,0.00
2013-10-11,79.0,72.5,61.0,67.0,62.2,59.0,96,72,52,29.97,29.88,6,1,10,0.01
2013-10-12,76.0,67.8,60.0,68.0,60.5,-99.9,99,84,68,30.01,29.90,6,0,8,0.01
2013-10-13,74.0,66.2,55.0,64.0,56.9,50.0,99,73,60,30.18,30.11,13,3,16,0.00
2013-10-18,68.0,60.6,53.0,56.0,51.5,47.0,96,74,47,29.98,29.85,12,2,12,0.02
2013-10-19,58.0,51.0,43.0,56.0,45.2,-99.9,99,85,60,29.98,29.79,8,2,17,0.12
2013-10-20,62.0,51.3,42.0,48.0,43.4,40.0,99,77,46,30.01,29.91,12,2,17,0.01
2013-10-21,67.0,53.8,42.0,53.0,46.5,39.0,98,79,51,29.96,29.87,8,2,20,0.06
2013-10-22,61.0,52.1,42.0,54.0,41.9,34.0,98,71,39,29.98,29.77,6,1,16,0.02
2013-10-23,52.0,45.7,40.0,47.0,38.3,34.0,95,76,51,30.03,29.81,8,2,18,0.01
2013-10-24,51.0,44.4,32.0,44.0,37.0,27.0,94,76,48,30.30,30.02,10,1,17,0.00
2013-11-1,68.0,59.4,49.0,57.0,48.4,43.0,95,70,40,29.75,29.62,10,3,20,0.01
2013-11-2,55.0,46.0,40.0,49.0,39.2,-99.9,99,85,71,30.11,29.75,7,1,13,0.00
2013-11-3,56.0,47.4,38.0,44.0,36.2,32.0,99,68,40,30.24,30.10,9,1,14,0.01
2013-11-4,59.0,50.9,41.0,46.0,41.6,37.0,86,72,51,30.23,30.13,16,2,21,0.00
2013-11-5,66.0,56.7,50.0,49.0,44.0,39.0,77,63,47,30.25,30.06,7,2,14,0.00
2013-11-6,59.0,55.8,48.0,59.0,47.6,42.0,99,75,63,30.11,29.97,12,4,25,0.50
2013-11-7,53.0,43.7,35.0,46.0,35.3,27.0,99,76,37,30.29,30.12,7,2,13,0.01
2013-11-8,57.0,43.2,33.0,41.0,33.0,27.0,99,71,33,30.32,30.13,8,1,13,0.00
2013-11-9,61.0,47.3,37.0,38.0,32.7,-99.9,83,62,37,30.16,30.05,16,4,26,0.00
2013-11-10,59.0,46.6,34.0,46.0,34.4,26.0,98,67,31,30.29,30.14,11,1,14,0.00
2013-11-24,31.0,24.3,16.0,15.0,11.9,10.0,77,59,42,30.64,30.40,13,4,21,0.00
2013-11-25,39.0,32.0,27.0,36.0,21.7,13.0,98,68,43,30.40,30.10,8,2,20,0.02
2013-11-26,41.0,38.4,33.0,40.0,33.3,22.0,99,82,63,30.00,29.88,17,5,21,0.17
2013-11-27,32.0,23.4,15.0,21.0,10.3,5.0,82,58,37,30.32,30.01,11,4,24,0.00
2013-11-28,41.0,27.2,15.0,20.0,14.8,10.0,86,61,35,30.41,30.27,14,4,22,0.00
2013-11-29,51.0,34.2,21.0,30.0,24.4,19.0,92,70,41,30.51,30.36,6,1,12,0.00
2013-11-30,55.0,40.5,28.0,29.0,22.1,-99.9,85,54,27,30.36,30.11,14,5,22,0.00
2013-12-18,51.0,37.5,23.0,29.0,23.8,16.0,96,63,29,30.27,30.02,13,4,18,0.00
2013-12-19,59.0,51.4,42.0,48.0,41.3,30.0,79,68,54,30.05,29.85,20,9,34,0.00
2013-12-20,66.0,60.9,56.0,64.0,56.9,47.0,95,87,71,29.85,29.73,19,11,28,0.01
2013-12-21,72.0,69.5,68.0,67.0,65.3,64.0,98,86,78,29.62,29.38,22,12,32,1.77
2013-12-22,56.0,48.9,39.0,54.0,46.5,36.0,99,92,85,30.10,29.79,7,4,17,0.01
2013-12-23,39.0,32.8,27.0,36.0,26.5,21.0,90,77,64,30.42,30.11,8,3,14,0.00
2013-12-24,26.0,22.3,16.0,21.0,11.7,4.0,81,64,45,30.56,30.38,11,2,17,0.00